Tracking 20083 objects as of 9-Dec-2019
HD Live streaming from Space Station
objects crossing your sky now

COSMOS 1823 DEB

Track COSMOS 1823 DEB now!
10-day predictions


NORAD ID: 18755
Int'l Code: 1987-020AG
Perigee: 1,477.4 km
Apogee: 1,532.0 km
Inclination: 73.6 °
Period: 115.9 minutes
Semi major axis: 7875 km
RCS: 0.0433 m2 (small)
Launch date: February 20, 1987
Source: Commonwealth of Independent States (former USSR) (CIS)
Launch site: PLESETSK MISSILE AND SPACE COMPLEX (PKMTR)

Note: This is SATELLITE DEBRIS
aabbcc
Your satellite tracking list
Your tracking list is empty




NASA's NSSDC Master Catalog

Two Line Element Set (TLE):
1 18755U 87020AG  19342.63166017  .00000030  00000-0  34389-3 0  9995
2 18755  73.6412  27.6434 0034616   7.9889 151.3448 12.42137091449348
Source of the keplerian elements: AFSPC